Back to catalog

COSMOS 2251 DEB

AliveLEO
NORAD 34560·DEBRIS·🇷🇺 Russia

Launched Jun 16, 1993 from Plesetsk Cosmodrome

Loading…

Next Passes (next 24 hours)

TLE

FreshSource: Space-Track

Epoch: Sep 14, 2026, 04:29 UTC

1 34560U 93036UW  26257.18688811  .00005695  00000-0  79432-3 0  9995
2 34560  74.0161 322.8125 0016238 331.3836  59.2834 14.77852408923145

Track COSMOS 2251 DEB in real time with AllMySat

Download on the App Store